LKCS Weather Reports


time (UTC)temp
C
wind
direction
speed
KPH
gust
KPH
rain 1hr
cm
rain 24hr
cm
rain mn
cm
humidity
%
barometer
mb
20260507180306 13 330 4.8 0.0 0.00 0.00 0.00 62 1014.0
20260507173304 15 280 12.9 0.0 0.00 0.00 0.00 54 1013.0
20260507170306 16 270 14.5 0.0 0.00 0.00 0.00 48 1013.0
20260507163305 17 240 16.1 0.0 0.00 0.00 0.00 45 1013.0
20260507160241 17 240 20.9 0.0 0.00 0.00 0.00 48 1012.0
20260507153304 17 260 24.1 0.0 0.00 0.00 0.00 48 1012.0
20260507150240 17 250 12.9 0.0 0.00 0.00 0.00 48 1012.0
20260507143304 18 270 14.5 0.0 0.00 0.00 0.00 42 1012.0
20260507140254 17 280 9.7 0.0 0.00 0.00 0.00 45 1012.0
20260507133238 18 250 12.9 0.0 0.00 0.00 0.00 45 1013.0
20260507130315 16 280 11.3 0.0 0.00 0.00 0.00 51 1013.0
20260507123305 17 230 19.3 0.0 0.00 0.00 0.00 45 1013.0
20260507123018 17 230 19.3 0.0 0.00 0.00 0.00 45 1013.0
20260507120248 16 290 11.3 0.0 0.00 0.00 0.00 51 1013.0
20260507113237 16 270 16.1 0.0 0.00 0.00 0.00 51 1013.0
20260507110315 16 270 14.5 0.0 0.00 0.00 0.00 51 1013.0
20260507103306 17 280 14.5 0.0 0.00 0.00 0.00 51 1012.0
20260507100247 16 280 22.5 0.0 0.00 0.00 0.00 51 1012.0
20260507093237 16 270 19.3 0.0 0.00 0.00 0.00 51 1012.0
20260507090314 15 280 14.5 0.0 0.00 0.00 0.00 58 1012.0
20260507083305 16 280 12.9 0.0 0.00 0.00 0.00 55 1012.0
20260507080247 15 270 9.7 0.0 0.00 0.00 0.00 54 1011.0
20260507073230 13 260 12.9 0.0 0.00 0.00 0.00 58 1012.0
20260507070314 13 270 11.3 0.0 0.00 0.00 0.00 62 1012.0
20260507063305 12 220 12.9 0.0 0.00 0.00 0.00 66 1012.0
20260507060242 12 200 9.7 0.0 0.00 0.00 0.00 71 1011.0
20260507053231 11 210 8.0 0.0 0.00 0.00 0.00 81 1011.0
20260507050249 10 200 8.0 0.0 0.00 0.00 0.00 87 1011.0
20260507043231 8 240 8.0 0.0 0.00 0.00 0.00 93 1010.0
20260507040306 8 260 12.9 0.0 0.00 0.00 0.00 87 1010.0
20260507033231 10 260 8.0 0.0 0.00 0.00 0.00 87 1010.0
20260507030306 8 0 0.0 0.0 0.00 0.00 0.00 93 1010.0
20260507023231 11 0 4.8 0.0 0.00 0.00 0.00 81 1009.0
20260507020246 11 250 9.7 0.0 0.00 0.00 0.00 87 1009.0
20260507013305 12 0 3.2 0.0 0.00 0.00 0.00 87 1009.0
20260507010307 12 240 8.0 0.0 0.00 0.00 0.00 87 1009.0
20260507003305 12 280 8.0 0.0 0.00 0.00 0.00 82 1009.0
20260507000306 12 270 8.0 0.0 0.00 0.00 0.00 93 1009.0
20260506233304 12 0 3.2 0.0 0.00 0.00 0.00 93 1008.0
20260506230306 12 290 4.8 0.0 0.00 0.00 0.00 87 1008.0
20260506223304 12 290 8.0 0.0 0.00 0.00 0.00 82 1008.0
20260506220306 12 310 4.8 0.0 0.00 0.00 0.00 87 1007.0
20260506213238 12 260 9.7 0.0 0.00 0.00 0.00 93 1007.0
20260506210240 12 210 8.0 0.0 0.00 0.00 0.00 87 1007.0
20260506203304 12 0 4.8 0.0 0.00 0.00 0.00 93 1006.0
20260506200246 12 280 16.1 0.0 0.00 0.00 0.00 87 1006.0
20260506193305 13 270 24.1 0.0 0.00 0.00 0.00 87 1006.0
20260506191605 13 270 29.0 48.3 0.00 0.00 0.00 82 1006.0
20260506191304 13 270 32.2 0.0 0.00 0.00 0.00 82 1006.0
20260506190518 13 270 29.0 0.0 0.00 0.00 0.00 87 1005.0
20260506190306 15 280 22.5 0.0 0.00 0.00 0.00 82 1005.0
20260506183305 17 300 16.1 0.0 0.00 0.00 0.00 59 1003.0